Council Bluffs, IA

10:02 PM CST on January 23, 2017 (GMT -0600)
Council Bluffs Municipal

Weather History for KCBF - April, 2013

Change the Weather History Date:

Friday, April 5, 2013

  Actual Average Record
Temperature  
Mean Temperature 49 °F -  
Max Temperature 66 °F 56 °F 78 °F (2006)
Min Temperature 32 °F 37 °F 24 °F (2007)
Degree Days  
Heating Degree Days 16    
Moisture  
Dew Point 33 °F    
Average Humidity 57    
Maximum Humidity 93    
Minimum Humidity 34    
Precipitation  
Precipitation 0.00 in - - ()
Sea Level Pressure  
Sea Level Pressure 30.00 in    
Wind  
Wind Speed 13 mph (SE)    
Max Wind Speed 25 mph    
Max Gust Speed 32 mph    
Visibility 10 miles    
Events      
Averages and records for this station are not official NWS values.
T = Trace of Precipitation, MM = Missing Value Source: NWS Daily Summary

Daily Weather History Graph

Daily Weather History Graph

Search for Another Location

Airport or City:

Trip Planner

Search our weather history database for the weather conditions in past years. The results will help you decide how hot, cold, wet, or windy it might be!

Date:

Astronomy

Apr. 05, 2013 Rise Set
Actual Time 6:59 AM CDT 7:52 PM CDT
Civil Twilight 6:31 AM CDT 8:20 PM CDT
Nautical Twilight 5:57 AM CDT 8:54 PM CDT
Astronomical Twilight 5:23 AM CDT 9:29 PM CDT
Moon 4:09 AM CDT (4/5) 3:15 PM CDT (4/5)
Length of Visible Light 13h 49m
Length of Day
12h 53m
Waning Crescent, 23% of the Moon is Illuminated
Apr 5
Waning Crescent
Apr 10
New
Apr 18
First Quarter
Apr 25
Full
May 2
Last Quarter

Hourly Weather History & Observations

Time (CDT) Temp. Windchill Dew Point Humidity Pressure Visibility Wind Dir Wind Speed Gust Speed Precip Events Conditions
12:15 AM 44.6 °F 38.4 °F 30.2 °F 57% 30.12 in 10.0 mi NE 12.7 mph - N/A   Mostly Cloudy
12:35 AM 42.8 °F 35.8 °F 30.2 °F 61% 30.12 in 10.0 mi NE 13.8 mph - N/A   Scattered Clouds
12:55 AM 41.0 °F 34.3 °F 30.2 °F 65% 30.12 in 10.0 mi NE 11.5 mph 17.3 mph N/A   Clear
1:15 AM 41.0 °F 35.2 °F 30.2 °F 65% 30.13 in 10.0 mi NE 9.2 mph - N/A   Clear
1:35 AM 41.0 °F 35.2 °F 30.2 °F 65% 30.14 in 10.0 mi NE 9.2 mph - N/A   Clear
1:55 AM 39.2 °F 32.0 °F 30.2 °F 70% 30.13 in 10.0 mi NE 11.5 mph - N/A   Clear
2:15 AM 39.2 °F 31.6 °F 30.2 °F 70% 30.14 in 10.0 mi NE 12.7 mph - N/A   Clear
2:35 AM 37.4 °F 32.8 °F 30.2 °F 75% 30.14 in 10.0 mi ENE 5.8 mph - N/A   Clear
2:55 AM 37.4 °F 32.1 °F 30.2 °F 75% 30.14 in 10.0 mi ENE 6.9 mph - N/A   Clear
3:15 AM 37.4 °F 32.1 °F 30.2 °F 75% 30.14 in 10.0 mi East 6.9 mph - N/A   Clear
3:35 AM 35.6 °F 29.9 °F 30.2 °F 81% 30.15 in 10.0 mi ENE 6.9 mph - N/A   Clear
3:55 AM 35.6 °F 30.7 °F 30.2 °F 81% 30.15 in 10.0 mi NE 5.8 mph - N/A   Clear
4:15 AM 33.8 °F 27.7 °F 30.2 °F 87% 30.15 in 10.0 mi NE 6.9 mph - N/A   Clear
4:35 AM 33.8 °F 27.0 °F 30.2 °F 87% 30.14 in 10.0 mi NE 8.1 mph - N/A   Clear
4:55 AM 33.8 °F 28.6 °F 30.2 °F 87% 30.15 in 10.0 mi NE 5.8 mph - N/A   Clear
5:15 AM 32.0 °F 25.6 °F 30.2 °F 93% 30.16 in 10.0 mi NE 6.9 mph - N/A   Partly Cloudy
5:35 AM 32.0 °F 25.6 °F 30.2 °F 93% 30.15 in 10.0 mi ENE 6.9 mph - N/A   Partly Cloudy
5:55 AM 32.0 °F 24.2 °F 30.2 °F 93% 30.15 in 10.0 mi ENE 9.2 mph - N/A   Partly Cloudy
6:15 AM 33.8 °F 27.0 °F 30.2 °F 87% 30.16 in 10.0 mi East 8.1 mph - N/A   Partly Cloudy
6:35 AM 32.0 °F 26.4 °F 28.4 °F 87% 30.16 in 10.0 mi ENE 5.8 mph - N/A   Partly Cloudy
6:55 AM 32.0 °F 25.6 °F 28.4 °F 87% 30.17 in 10.0 mi ENE 6.9 mph - N/A   Clear
7:15 AM 32.0 °F 26.4 °F 30.2 °F 93% 30.16 in 10.0 mi East 5.8 mph - N/A   Clear
7:35 AM 32.0 °F 26.4 °F 30.2 °F 93% 30.16 in 10.0 mi ESE 5.8 mph - N/A   Mostly Cloudy
7:55 AM 33.8 °F 26.4 °F 30.2 °F 87% 30.15 in 10.0 mi East 9.2 mph - N/A   Scattered Clouds
8:15 AM 33.8 °F 25.8 °F 30.2 °F 87% 30.15 in 10.0 mi ESE 10.4 mph - N/A   Clear
8:35 AM 35.6 °F 27.1 °F 30.2 °F 81% 30.14 in 10.0 mi ESE 12.7 mph - N/A   Light Drizzle
8:55 AM 37.4 °F 30.3 °F 32.0 °F 81% 30.15 in 10.0 mi ESE 10.4 mph 16.1 mph N/A   Light Drizzle
9:15 AM 39.2 °F 32.0 °F 30.2 °F 70% 30.15 in 10.0 mi ESE 11.5 mph - N/A   Clear
9:35 AM 41.0 °F 33.9 °F 32.0 °F 70% 30.14 in 10.0 mi SE 12.7 mph - N/A   Clear
9:55 AM 42.8 °F 36.6 °F 32.0 °F 66% 30.15 in 10.0 mi SE 11.5 mph - N/A   Clear
10:15 AM 44.6 °F 38.1 °F 32.0 °F 61% 30.13 in 10.0 mi SE 13.8 mph - N/A   Clear
10:35 AM 46.4 °F 40.7 °F 32.0 °F 57% 30.13 in 10.0 mi SE 12.7 mph - N/A   Clear
10:55 AM 48.2 °F - 32.0 °F 54% 30.12 in 10.0 mi SSE 12.7 mph - N/A   Clear
11:15 AM 50.0 °F - 32.0 °F 50% 30.11 in 10.0 mi SSE 15.0 mph - N/A   Clear
11:35 AM 51.8 °F - 32.0 °F 47% 30.10 in 10.0 mi SE 18.4 mph - N/A   Clear
11:55 AM 53.6 °F - 30.2 °F 41% 30.08 in 10.0 mi SSE 20.7 mph - N/A   Clear
12:15 PM 55.4 °F - 32.0 °F 41% 30.06 in 10.0 mi SSE 17.3 mph 25.3 mph N/A   Clear
12:35 PM 57.2 °F - 32.0 °F 38% 30.06 in 10.0 mi SSE 17.3 mph 23.0 mph N/A   Clear
12:55 PM 59.0 °F - 33.8 °F 39% 30.04 in 10.0 mi SSE 17.3 mph 25.3 mph N/A   Clear
1:15 PM 59.0 °F - 33.8 °F 39% 30.02 in 10.0 mi SSE 17.3 mph 26.5 mph N/A   Clear
1:35 PM 60.8 °F - 33.8 °F 36% 30.00 in 10.0 mi South 19.6 mph 26.5 mph N/A   Clear
1:55 PM 60.8 °F - 35.6 °F 39% 29.99 in 10.0 mi SSE 19.6 mph 27.6 mph N/A   Clear
2:15 PM 62.6 °F - 35.6 °F 37% 29.97 in 10.0 mi South 23.0 mph - N/A   Clear
2:35 PM 62.6 °F - 35.6 °F 37% 29.96 in 10.0 mi South 18.4 mph 27.6 mph N/A   Clear
2:55 PM 64.4 °F - 35.6 °F 34% 29.94 in 10.0 mi South 21.9 mph 28.8 mph N/A   Clear
3:15 PM 64.4 °F - 35.6 °F 34% 29.93 in 10.0 mi South 19.6 mph 29.9 mph N/A   Clear
3:35 PM 64.4 °F - 37.4 °F 37% 29.91 in 10.0 mi South 20.7 mph - N/A   Clear
3:55 PM 64.4 °F - 37.4 °F 37% 29.90 in 10.0 mi South 21.9 mph 27.6 mph N/A   Clear
4:15 PM 64.4 °F - 37.4 °F 37% 29.87 in 10.0 mi SSE 25.3 mph 32.2 mph N/A   Clear
4:35 PM 66.2 °F - 37.4 °F 35% 29.86 in 10.0 mi SSE 19.6 mph 26.5 mph N/A   Clear
4:55 PM 66.2 °F - 37.4 °F 35% 29.85 in 10.0 mi SSE 21.9 mph 28.8 mph N/A   Clear
5:15 PM 66.2 °F - 37.4 °F 35% 29.83 in 10.0 mi South 20.7 mph 28.8 mph N/A   Clear
5:35 PM 66.2 °F - 37.4 °F 35% 29.82 in 10.0 mi SSE 21.9 mph 29.9 mph N/A   Clear
5:55 PM 66.2 °F - 37.4 °F 35% 29.82 in 10.0 mi SSE 25.3 mph - N/A   Clear
6:15 PM 66.2 °F - 37.4 °F 35% 29.81 in 10.0 mi SSE 18.4 mph 28.8 mph N/A   Clear
6:35 PM 66.2 °F - 37.4 °F 35% 29.81 in 10.0 mi SSE 20.7 mph - N/A   Clear
6:55 PM 64.4 °F - 37.4 °F 37% 29.80 in 10.0 mi SSE 18.4 mph - N/A   Clear
7:15 PM 66.2 °F - 37.4 °F 35% 29.79 in 10.0 mi SSE 16.1 mph 23.0 mph N/A   Clear
7:35 PM 64.4 °F - 37.4 °F 37% 29.79 in 10.0 mi South 16.1 mph 24.2 mph N/A   Clear
7:55 PM 64.4 °F - 37.4 °F 37% 29.78 in 10.0 mi South 18.4 mph - N/A   Clear
8:15 PM 62.6 °F - 37.4 °F 39% 29.78 in 10.0 mi South 17.3 mph 24.2 mph N/A   Clear
8:35 PM 62.6 °F - 35.6 °F 37% 29.77 in 10.0 mi SSE 17.3 mph - N/A   Clear
8:55 PM 60.8 °F - 37.4 °F 42% 29.76 in 10.0 mi SSE 17.3 mph 25.3 mph N/A   Clear
9:15 PM 60.8 °F - 37.4 °F 42% 29.76 in 10.0 mi South 18.4 mph - N/A   Clear
9:55 PM 59.0 °F - 37.4 °F 45% 29.76 in 10.0 mi SSE 16.1 mph - N/A   Clear
10:15 PM 59.0 °F - 37.4 °F 45% 29.75 in 10.0 mi SSE 17.3 mph 23.0 mph N/A   Clear
10:35 PM 59.0 °F - 37.4 °F 45% 29.75 in 10.0 mi South 16.1 mph 21.9 mph N/A   Clear
10:55 PM 59.0 °F - 37.4 °F 45% 29.74 in 10.0 mi South 16.1 mph - N/A   Clear
11:15 PM 59.0 °F - 37.4 °F 45% 29.74 in 10.0 mi South 15.0 mph - N/A   Clear
11:35 PM 59.0 °F - 37.4 °F 45% 29.73 in 10.0 mi SSE 15.0 mph 23.0 mph N/A   Clear
11:55 PM 59.0 °F - 39.2 °F 48% 29.73 in 10.0 mi South 16.1 mph 24.2 mph N/A   Clear